RH
94 103 107 107 107 106 103 101 100 100 100 100 100 104 106 101 100 103 102 100 97 96 97 99 102 103 104 102 100 101 100 100 100 100 100 101 103 104 106 106 103 100 99 97 96 95 95 96 98 98 99 100 101 101 100 99 98 97 97 95 93 93 93 93 93 94 93 91 90 89 88 86 84 81 79 76 74 71 68 65 63 61 61 61 59 57 54 51
98 103 107 107 107 108 108 105 103 102 102 101 100 102 102 100 100 102 101 101 98 97 95 92 93 96 100 98 95 96 97 97 98 99 100 101 101 100 102 102 101 98 96 96 95 94 95 96 97 97 97 96 96 95 94 94 94 96 96 94 94 94 94 93 93 92 91 91 90 87 85 83 81 77 74 71 68 65 64 63 62 62 61 59 55 51 49 48
87 98 104 106 108 112 111 107 103 104 104 101 102 102 100 100 100 100 100 100 101 102 99 95 92 90 92 92 90 89 89 90 90 92 94 95 98 100 101 101 101 102 102 103 102 101 100 99 99 99 99 99 99 99 99 100 99 100 98 96 95 94 93 93 92 91 91 91 88 84 81 79 76 72 69 66 64 64 66 67 65 62 57 52 48 46 48 50
65 82 97 104 107 111 113 109 104 103 102 100 102 102 101 102 101 101 100 101 103 104 101 99 98 97 96 94 93 89 87 86 86 85 84 85 88 90 91 93 95 97 98 99 100 102 104 104 103 102 102 103 102 102 102 101 100 99 98 97 97 95 94 94 92 91 89 86 82 79 77 74 71 68 67 66 67 69 69 67 61 55 50 47 48 51 54 55
55 62 77 93 103 107 109 108 106 105 102 101 101 101 103 103 102 101 100 100 101 102 101 100 100 100 100 99 98 96 93 91 90 86 85 88 92 91 89 89 89 90 90 92 95 99 103 104 103 102 102 102 102 102 101 99 98 98 98 97 96 96 95 92 89 85 82 78 76 75 73 71 68 67 68 70 70 67 63 58 54 52 50 52 56 59 62 60
57 57 61 72 86 98 104 105 104 103 101 100 100 99 101 102 101 100 101 101 100 100 100 100 100 101 101 100 100 100 99 98 97 95 94 96 100 101 98 97 98 97 97 97 99 101 102 102 102 103 103 102 101 100 99 98 98 98 98 97 95 93 91 87 82 78 77 75 74 72 70 69 68 68 69 68 63 57 54 53 54 55 55 57 59 59 59 58
60 59 59 60 66 76 87 95 99 100 98 97 96 95 94 94 95 94 94 97 98 99 100 100 100 100 101 100 100 100 100 100 100 100 100 100 102 103 102 102 102 102 101 102 102 102 101 102 103 104 103 102 100 99 99 99 99 98 96 94 91 88 85 81 78 77 75 73 72 70 71 72 70 67 63 58 53 52 53 56 57 57 57 57 56 55 54 55
65 60 58 58 59 62 67 75 82 87 91 92 92 91 89 87 86 86 85 86 88 90 93 96 97 98 98 98 98 99 100 100 99 99 100 100 101 102 102 101 100 100 100 100 101 101 102 103 104 104 103 101 100 100 99 99 98 96 93 90 87 84 82 80 78 76 73 72 74 74 73 71 66 61 56 52 51 53 57 59 60 60 60 58 56 56 55 55
71 64 60 57 57 57 58 61 64 69 75 80 83 84 84 83 82 80 79 78 77 78 81 84 87 88 89 90 90 91 94 94 94 95 95 96 97 97 98 98 97 97 97 98 99 99 101 102 102 102 102 101 100 99 97 96 94 92 89 86 84 83 81 79 76 73 72 75 77 74 69 64 59 55 53 52 53 57 61 63 65 66 66 64 62 60 58 57
79 75 72 67 61 57 54 53 53 54 56 60 66 70 74 76 77 78 77 75 72 71 71 74 78 81 82 83 82 82 83 85 87 87 88 90 92 93 95 96 96 96 97 98 98 99 101 101 101 100 100 99 99 97 94 92 90 89 88 85 84 84 81 78 75 74 76 78 77 72 66 62 57 55 55 54 57 63 64 63 67 70 70 68 66 64 62 61
89 87 83 77 70 64 58 53 49 47 46 46 47 50 53 57 61 65 68 70 69 68 66 67 71 76 80 81 81 81 79 79 81 82 84 86 88 91 93 95 96 98 99 100 102 102 102 101 101 100 98 97 96 94 94 93 92 91 89 88 86 84 80 77 77 79 80 80 78 74 69 64 60 58 57 58 62 67 65 63 67 69 68 67 67 66 65 66
94 90 85 79 73 66 60 54 50 46 43 42 40 39 38 38 40 42 46 50 55 59 62 64 67 72 76 78 80 81 79 79 80 81 83 85 88 91 94 96 97 98 100 102 104 103 102 102 101 99 96 95 95 96 96 94 94 92 91 90 85 81 79 78 83 85 84 84 81 76 71 66 62 58 58 62 69 74 70 67 71 72 71 71 72 71 71 75
94 88 81 75 67 59 54 49 46 44 41 39 36 34 32 30 29 29 29 30 32 36 41 48 55 61 67 72 75 77 79 79 79 81 83 86 89 93 96 98 99 100 101 103 103 102 101 100 98 96 95 97 98 97 96 95 95 92 90 86 80 81 82 83 88 89 87 86 82 77 72 68 64 60 60 65 78 86 78 73 77 78 78 81 84 85 85 89
91 84 75 66 60 54 52 49 47 45 43 40 36 31 27 24 22 20 20 20 20 22 24 28 33 39 47 55 61 66 72 75 77 81 84 88 92 96 99 101 102 102 102 103 102 101 100 99 99 99 99 99 98 95 95 95 93 90 86 80 77 86 93 94 97 97 92 89 83 76 72 71 68 64 63 66 79 87 78 76 81 81 84 90 92 93 92 92
84 75 67 62 60 58 56 54 53 51 47 43 38 31 26 22 20 17 16 16 14 14 16 18 21 25 29 34 41 47 54 61 69 76 81 87 92 96 99 101 102 102 101 101 100 99 100 102 103 102 100 98 96 97 94 91 89 87 80 74 75 88 98 100 103 99 93 88 81 76 74 75 73 70 69 72 81 81 76 80 86 87 92 96 98 94 88 84
72 67 66 66 65 65 63 60 58 56 52 48 40 32 27 26 25 21 18 18 15 12 12 13 14 17 21 25 29 33 39 45 54 64 72 79 85 90 94 97 98 99 100 99 100 102 104 105 103 101 99 99 99 96 91 88 87 83 80 81 85 93 96 99 102 95 88 86 82 81 80 78 79 77 73 79 85 81 79 87 92 95 100 102 100 93 85 81
74 76 77 77 76 74 71 67 64 61 58 53 44 34 27 27 30 27 20 17 15 13 11 12 12 13 15 19 23 27 32 37 44 51 59 67 75 82 87 92 95 99 100 101 104 105 105 103 100 100 103 103 101 94 88 85 81 80 89 98 99 99 98 98 100 92 86 85 86 88 83 82 90 86 79 85 88 83 84 89 94 100 104 103 96 87 81 79
90 91 90 87 84 80 76 72 68 65 62 59 53 44 35 31 34 37 31 22 17 16 15 14 13 13 14 16 20 24 27 32 37 43 50 58 67 76 84 89 94 99 103 105 106 103 102 101 101 105 108 102 95 89 81 75 76 84 94 101 101 101 100 97 95 90 84 86 91 90 81 85 100 97 89 91 89 88 89 89 95 100 99 95 88 82 79 75
97 94 90 86 83 79 76 71 68 65 64 63 63 59 50 42 37 39 41 34 24 21 20 18 16 15 16 16 19 24 29 35 40 45 51 57 65 73 80 88 95 102 105 105 102 100 100 101 101 104 101 94 89 84 77 73 80 91 97 100 101 100 101 101 98 89 82 89 93 84 77 90 105 102 94 93 94 94 93 94 102 101 93 87 83 81 76 69
90 86 84 83 83 82 80 76 73 71 70 67 65 63 61 58 49 42 43 42 34 28 24 23 22 19 19 21 24 29 35 41 48 54 58 61 66 73 82 93 101 103 103 101 100 100 101 100 102 102 96 91 88 82 76 75 81 90 96 99 101 101 103 104 94 82 84 91 86 77 84 101 109 105 100 98 98 96 96 102 106 98 89 86 85 82 72 61
81 79 79 82 86 89 88 87 85 83 80 75 70 66 63 64 62 54 46 42 40 36 30 27 26 25 24 25 28 32 38 48 58 66 73 76 74 77 87 98 102 102 101 100 100 101 101 101 103 100 92 87 85 80 77 77 83 91 93 95 101 102 99 93 84 84 92 87 77 82 97 106 108 106 104 101 98 96 99 104 102 95 91 89 86 78 65 50
76 75 76 79 83 86 88 90 91 91 89 85 81 75 68 65 66 64 56 48 44 39 35 32 28 29 30 31 33 34 38 48 60 70 80 85 85 86 94 99 100 101 100 99 100 101 103 102 97 92 88 89 90 89 87 89 93 96 96 100 100 94 89 89 92 96 90 76 79 96 106 106 107 105 103 101 99 99 102 103 100 95 92 88 79 64 48 37
73 73 74 75 77 79 80 81 84 86 88 88 85 80 76 69 64 65 61 58 54 44 37 36 34 34 37 40 41 41 45 53 62 70 76 84 92 96 100 100 99 100 100 100 101 101 103 96 87 90 95 97 98 96 96 98 99 100 101 97 89 86 92 96 96 90 80 80 93 104 105 104 104 101 97 96 96 100 104 103 100 96 90 77 60 44 35 34
71 71 72 74 75 76 75 74 74 76 80 82 82 80 80 74 66 64 61 59 63 58 45 39 39 40 43 47 48 52 61 72 80 82 83 90 97 99 100 101 100 100 100 101 101 102 106 97 88 97 101 96 96 98 100 101 101 99 94 88 88 96 100 93 86 83 86 96 104 105 101 98 100 100 94 91 94 96 98 99 98 90 74 55 40 35 36 37
71 70 74 76 74 73 72 72 71 72 73 73 75 75 75 72 66 65 62 55 58 65 60 49 44 43 46 51 54 58 70 83 91 92 93 97 100 99 101 101 100 101 101 101 102 104 108 102 97 103 100 93 97 100 98 97 96 92 88 92 99 99 91 84 83 88 97 104 106 105 98 93 96 97 91 89 90 90 94 96 87 68 49 39 37 38 39 42
76 73 76 75 71 68 68 69 68 68 66 63 63 63 64 65 62 63 64 56 49 58 65 61 55 50 49 53 56 61 70 81 88 93 98 100 99 99 100 100 101 102 101 100 102 104 104 101 99 104 102 97 99 99 94 94 96 94 91 95 95 87 82 86 92 98 103 105 105 102 93 92 96 91 86 86 86 87 88 78 59 44 39 39 41 43 50 58
80 76 75 70 66 65 67 67 65 61 56 51 48 47 50 53 54 57 61 57 48 48 57 63 63 59 58 59 59 61 66 71 77 84 93 98 101 102 102 102 100 99 98 98 100 99 97 97 99 103 102 98 98 100 99 99 101 98 90 87 86 85 89 96 100 102 101 101 104 99 90 92 94 88 86 85 83 80 69 52 42 40 42 44 49 57 64 66
85 80 75 69 67 70 72 69 62 54 45 38 33 32 34 38 43 48 52 52 48 45 49 57 63 64 65 66 66 68 67 66 67 69 73 78 83 85 84 86 87 91 94 95 97 99 100 103 104 103 101 99 100 103 103 102 101 94 85 85 88 93 100 101 101 101 98 97 103 99 89 87 87 87 87 81 74 64 49 42 43 46 51 56 62 66 63 57
93 87 77 70 72 75 73 65 55 45 33 24 20 18 20 23 30 36 40 45 47 47 46 49 57 63 67 68 70 73 75 75 76 72 68 66 64 63 64 68 77 89 97 99 101 104 105 105 106 105 104 105 104 101 96 92 90 86 86 92 97 101 104 101 98 97 93 94 97 91 83 83 87 89 83 68 55 47 44 49 56 59 62 62 60 56 49 46
98 88 76 72 73 73 68 58 46 35 22 14 11 10 11 13 17 23 30 37 42 45 46 46 51 58 64 67 70 74 77 81 84 83 82 80 77 76 76 78 83 91 96 97 99 99 100 104 107 105 105 107 103 97 91 86 85 88 94 99 100 103 102 96 93 91 90 90 88 85 84 89 90 79 62 49 44 49 57 61 61 58 56 52 48 44 41 40
92 80 73 72 73 69 62 52 39 25 15 11 9 8 9 9 11 15 20 27 34 40 45 46 48 51 58 63 67 71 74 77 82 87 90 92 91 92 91 92 93 96 97 98 99 99 102 108 109 106 103 100 96 94 95 95 96 97 100 101 101 100 96 92 91 89 88 87 85 87 87 81 69 53 44 46 52 58 59 53 49 49 49 47 44 40 39 40
82 75 74 73 73 67 57 49 36 19 12 12 10 9 9 9 10 12 15 19 25 33 39 44 47 51 55 61 66 71 76 81 87 93 98 99 100 98 96 95 96 98 99 99 100 102 104 107 105 100 92 87 90 97 100 100 99 100 103 104 101 97 92 91 91 87 86 85 83 79 66 51 44 44 48 51 51 50 46 43 45 48 50 49 46 44 46 49
76 74 75 75 74 66 54 47 33 17 13 13 10 10 10 9 10 12 14 17 21 26 33 41 50 56 60 65 70 76 80 83 87 92 94 94 92 91 90 91 90 90 90 92 97 101 103 102 99 95 90 89 96 100 99 99 101 102 102 100 95 92 88 87 86 84 82 76 66 55 44 42 46 49 49 47 43 42 41 44 50 54 60 61 60 60 62 62
75 75 75 75 74 64 53 45 30 17 16 14 11 12 12 11 12 12 15 18 21 25 29 36 46 55 62 66 70 75 78 80 82 84 85 85 86 87 87 85 84 86 90 94 97 98 98 98 98 99 98 99 100 100 101 102 99 96 93 91 89 87 83 81 78 72 64 52 45 45 45 47 46 42 42 44 44 46 50 58 67 75 80 78 73 71 70 70
74 75 75 75 74 65 53 41 27 19 18 15 14 14 14 14 14 15 16 18 21 25 28 33 38 45 53 59 64 68 70 72 74 76 79 81 81 81 81 82 86 91 96 98 98 97 98 98 99 100 99 101 101 99 97 93 88 87 87 86 84 82 79 72 61 50 42 40 46 51 48 42 39 38 43 47 49 56 64 74 83 87 86 82 79 80 82 85
73 75 75 75 74 65 52 38 25 20 19 16 15 16 16 17 17 18 19 20 23 26 29 33 36 40 44 48 54 60 63 66 68 70 71 72 74 78 83 88 93 97 98 99 100 99 99 99 100 101 100 98 94 89 86 85 86 86 84 84 81 74 65 54 44 41 42 42 44 45 41 40 42 45 49 52 56 63 70 76 82 84 85 86 89 90 90 87
73 75 75 75 72 65 53 36 23 21 20 17 18 19 20 21 21 22 24 25 27 29 31 34 37 41 43 45 49 54 58 60 63 67 72 78 84 89 93 95 98 100 99 98 99 100 99 102 104 101 94 89 86 86 89 90 90 89 87 82 69 55 46 41 42 42 39 35 35 42 48 50 54 55 54 56 64 72 78 85 90 92 92 91 87 80 72 63
73 75 76 74 71 65 53 35 22 21 20 18 20 22 23 25 27 29 31 33 35 36 38 41 42 46 49 51 53 56 62 69 74 79 86 94 98 99 99 99 99 99 99 100 102 100 94 93 98 98 94 93 92 93 95 95 92 88 79 64 50 44 44 43 40 35 33 36 41 51 56 59 66 68 63 67 77 85 91 96 96 91 82 73 63 55 48 44
74 76 75 72 69 63 51 33 21 20 21 19 21 23 26 29 32 36 38 39 41 42 44 46 48 52 57 61 66 68 75 85 90 92 95 98 99 99 99 99 100 102 101 101 100 95 89 86 92 97 95 94 93 91 90 85 76 66 55 49 48 48 44 39 36 38 41 45 49 54 60 71 83 84 81 86 91 91 89 84 75 64 55 50 47 46 46 48
75 76 75 71 66 61 48 30 20 20 19 19 21 23 26 31 36 40 44 46 48 50 52 55 59 63 68 75 80 81 83 89 94 97 99 100 100 100 101 102 102 100 98 97 97 95 89 83 85 89 88 88 85 77 68 59 52 49 48 49 47 43 40 40 45 52 57 63 71 74 80 95 103 97 94 93 85 75 67 59 52 50 50 53 54 54 54 55
76 77 75 68 63 57 41 27 22 21 20 20 21 23 27 33 38 42 48 54 59 63 66 70 75 79 82 85 89 93 96 98 100 103 104 105 105 103 102 101 100 99 99 99 95 89 82 77 79 82 79 73 64 54 48 46 45 45 42 41 41 44 49 52 59 69 78 89 96 94 95 102 101 90 80 70 59 53 53 53 55 58 60 60 58 55 54 54
76 76 73 66 61 50 34 25 22 22 23 23 23 27 31 36 40 43 48 55 63 71 78 85 91 95 98 99 99 101 104 104 106 107 106 105 104 102 101 101 101 100 97 91 86 81 77 72 69 64 58 53 49 46 45 42 40 40 41 46 53 60 66 69 75 85 93 99 101 94 87 81 71 61 54 49 49 53 56 58 60 59 57 55 52 51 52 53
75 73 68 63 54 39 27 24 22 22 25 25 25 30 35 42 50 57 63 69 77 85 90 94 98 100 102 104 104 104 104 105 108 109 107 105 105 104 103 99 95 91 86 82 79 73 62 53 49 48 49 49 47 42 39 40 47 56 63 69 76 82 86 90 93 95 95 93 87 76 65 56 51 51 51 52 56 57 55 55 54 52 52 50 49 51 52 53
71 68 64 55 41 28 22 21 21 23 25 26 28 31 36 46 59 71 80 86 89 91 91 92 95 98 102 104 106 108 110 109 109 109 107 104 101 96 92 88 84 81 75 68 60 52 46 44 42 41 41 40 39 41 47 59 73 82 83 85 90 96 97 97 95 89 79 69 62 59 57 57 58 57 55 55 54 52 51 50 50 50 50 49 49 51 52 51
68 64 57 43 28 21 19 18 20 22 24 26 29 32 37 46 55 65 74 80 83 85 86 89 93 96 100 101 101 103 105 104 101 99 95 90 87 85 83 79 73 64 55 48 45 45 45 42 36 33 33 34 39 49 58 69 81 88 89 88 90 91 86 79 71 62 54 52 56 62 63 63 62 56 52 53 52 51 53 53 53 53 52 50 50 51 50 49
66 57 42 27 19 17 16 16 19 21 23 26 28 31 36 42 46 53 60 66 73 77 81 86 88 89 91 90 87 84 83 82 81 81 81 79 78 74 68 60 52 46 44 43 42 39 37 34 34 40 47 47 51 60 67 71 78 83 82 77 73 67 60 55 53 53 54 57 62 64 62 61 61 56 54 55 55 56 57 56 55 54 51 49 49 49 48 47
54 40 26 18 15 14 14 15 17 18 20 23 25 28 31 35 39 45 51 56 61 64 69 74 76 76 76 74 72 70 69 69 69 68 65 61 57 51 47 45 44 42 40 36 32 31 35 43 50 61 69 66 66 74 79 78 76 72 64 58 54 51 51 55 59 60 58 58 60 62 61 60 58 56 56 57 56 54 53 51 49 48 47 47 48 47 47 47
35 22 15 13 12 12 13 13 14 16 18 21 24 27 30 34 38 42 46 50 53 56 58 60 62 63 63 63 64 64 63 60 56 51 47 44 43 44 43 41 38 33 29 29 33 39 49 60 69 79 87 83 77 77 74 67 62 57 53 53 55 57 59 62 62 60 59 60 61 61 60 58 57 57 56 53 49 47 46 46 46 46 45 46 46 45 44 42
19 14 12 11 11 12 13 14 16 18 21 23 26 29 32 35 38 41 43 45 48 50 51 51 53 54 53 53 51 49 48 45 43 43 44 43 41 38 35 30 28 30 34 40 50 58 66 74 79 84 88 83 72 64 59 57 59 61 62 62 62 61 61 62 63 63 63 63 62 60 58 56 53 51 49 46 45 45 46 46 47 45 44 44 43 41 39 36
13 12 12 12 13 14 16 18 20 22 24 26 28 30 32 34 36 39 41 42 44 45 45 44 44 42 41 40 40 40 41 41 42 42 39 35 30 27 28 32 38 46 53 59 66 71 74 76 75 72 70 64 56 56 60 63 66 68 66 64 62 61 63 64 63 63 61 60 58 55 52 50 49 49 48 48 47 47 47 47 46 44 42 41 38 35 33 30
13 13 14 15 17 19 21 24 25 27 28 29 30 31 32 34 34 34 36 38 38 38 38 37 37 37 38 39 39 40 39 36 33 29 26 26 29 34 41 49 55 61 66 69 71 71 68 64 57 52 53 56 57 61 65 64 64 65 65 65 64 63 63 61 60 58 56 54 51 49 48 50 51 51 50 49 48 47 46 46 44 40 37 34 31 28 26 24
14 16 18 20 22 24 25 26 27 28 28 28 28 29 29 30 30 30 33 34 35 36 36 37 37 37 35 34 32 30 27 25 24 26 30 36 42 48 53 57 60 63 65 65 61 56 51 48 48 49 56 61 60 59 60 62 66 69 68 65 63 61 59 58 57 56 54 52 50 50 51 51 51 49 48 47 46 45 44 41 36 32 28 25 23 22 21 21
Wind_Speed
55 54 54 54 53 52 50 48 47 46 46 47 48 50 49 49 48 48 48 48 48 50 50 51 50 49 48 47 44 41 39 39 39 39 39 41 42 44 45 46 47 48 48 48 49 50 50 51 51 52 53 54 55 56 57 58 59 60 60 61 62 62 63 64 64 64 65 66 67 68 68 70 72 71 71 71 72 72 73 74 74 73 73 72 73 73 73 73
55 54 53 53 53 53 52 50 49 47 47 47 48 49 50 50 49 49 51 52 51 50 51 52 52 52 52 52 51 50 48 47 46 45 44 43 44 44 45 46 48 49 51 51 52 53 54 54 55 55 56 57 58 59 60 61 61 61 62 62 63 63 63 64 64 65 66 67 68 69 69 70 71 72 72 72 71 71 72 73 73 72 71 71 72 72 71 71
54 53 53 53 53 53 53 52 51 50 49 49 49 49 50 51 50 49 50 52 53 52 52 52 52 53 53 53 54 54 54 53 53 52 52 51 50 50 49 49 50 51 51 52 53 54 55 56 57 58 58 58 59 59 59 59 60 60 61 61 62 63 63 64 65 66 67 68 68 69 69 70 70 71 71 71 71 70 70 71 71 71 71 71 71 70 69 68
51 53 53 53 53 53 53 52 52 52 51 51 51 51 51 51 51 50 50 50 53 54 54 53 52 52 53 53 54 55 55 55 56 56 56 56 56 56 56 56 56 57 57 57 57 56 56 56 56 57 57 57 57 58 58 59 59 60 61 61 62 64 64 65 65 66 66 67 68 68 69 69 69 69 69 69 69 68 68 70 70 71 71 69 69 68 67 67
46 50 52 53 53 53 53 53 53 53 53 53 52 52 53 53 53 53 52 51 52 53 54 55 54 52 52 53 53 54 54 55 56 57 57 56 56 56 57 58 59 60 61 60 60 59 58 57 57 57 57 57 58 58 59 60 61 61 62 63 63 64 65 65 66 66 66 66 67 68 68 68 68 67 67 67 67 67 67 68 68 68 68 66 65 64 64 66
42 45 48 52 54 54 54 54 54 54 55 55 55 54 55 55 55 55 54 54 53 53 53 55 55 55 54 53 53 53 52 53 54 56 57 57 56 56 55 55 55 56 57 57 57 57 57 57 57 57 57 58 59 60 61 62 62 63 63 64 64 65 65 66 66 66 66 66 66 67 66 67 66 66 65 66 66 66 66 65 65 65 65 63 61 62 62 65
40 42 45 48 51 53 55 55 56 56 56 56 57 57 57 57 58 58 58 57 56 55 55 55 55 56 56 56 55 54 53 53 53 53 54 56 57 57 57 56 55 55 55 55 55 56 56 57 57 58 58 59 60 61 62 63 64 64 64 65 65 65 65 65 66 66 66 65 65 65 64 64 64 64 64 64 63 63 62 62 63 64 64 62 61 62 63 64
37 39 41 44 46 49 52 55 56 57 57 58 58 58 59 59 59 60 60 61 60 59 58 57 57 57 58 58 58 58 57 56 55 55 54 55 56 56 57 57 57 57 57 57 57 58 58 58 59 59 60 61 61 62 63 64 64 65 65 65 65 65 65 65 65 65 64 63 63 62 62 62 62 62 62 61 60 59 59 60 61 62 64 64 64 64 64 64
34 36 37 39 41 44 47 50 53 56 58 59 60 61 61 61 61 62 62 63 63 63 62 61 60 60 60 60 61 60 60 60 59 59 58 57 57 58 58 58 58 58 59 59 59 59 59 59 60 60 61 62 62 63 64 64 64 64 64 64 64 64 64 64 63 62 61 60 60 61 61 61 61 60 60 59 58 57 58 59 61 62 64 66 67 67 67 66
31 31 33 35 37 39 42 45 48 51 54 57 59 61 63 64 65 65 65 65 65 65 65 63 63 63 62 63 63 62 62 62 61 61 60 60 60 59 59 59 59 59 59 60 60 60 60 60 61 62 62 62 63 63 63 63 63 63 64 64 64 64 63 62 60 59 58 57 58 59 60 60 60 59 59 58 57 57 58 59 61 63 65 67 69 69 69 69
28 29 30 31 33 35 37 39 41 44 47 50 53 56 60 63 65 67 68 69 69 69 68 66 65 64 64 64 64 64 64 64 63 62 62 61 61 61 60 60 60 60 60 60 60 60 61 61 62 62 62 62 62 62 62 62 62 63 63 63 63 61 61 59 57 56 56 55 56 58 60 60 59 59 59 58 58 60 61 61 63 65 67 68 69 70 70 71
25 26 27 27 28 30 31 33 34 36 39 41 44 48 51 54 58 61 65 68 70 71 71 70 69 68 68 67 67 66 66 65 64 63 63 62 62 62 62 61 61 61 61 60 61 61 62 62 62 62 62 61 61 61 61 62 62 63 62 61 60 58 57 56 54 55 54 54 56 57 60 61 60 60 60 59 61 63 63 63 65 68 70 71 72 72 72 72
23 24 24 25 25 26 27 28 29 31 33 35 37 39 42 44 48 51 54 58 62 65 68 70 71 72 72 72 71 69 68 67 66 65 64 63 63 62 62 62 62 61 61 61 61 62 62 62 61 61 61 61 61 61 61 61 61 61 60 58 57 56 55 54 53 54 55 55 56 57 60 62 62 61 61 60 62 65 66 66 68 70 71 73 74 74 74 75
22 22 22 23 23 24 25 26 27 29 31 32 34 35 37 39 42 44 46 49 52 54 57 60 64 68 70 72 73 72 71 69 68 66 65 64 63 63 62 62 62 61 61 61 61 61 61 61 60 60 61 61 61 61 61 60 59 58 58 56 54 53 53 53 53 55 57 56 58 59 60 64 64 63 62 61 63 67 68 69 70 72 73 73 74 75 76 77
21 21 21 21 22 23 25 26 27 28 30 31 32 33 35 36 38 39 40 43 45 46 48 51 54 58 61 65 68 70 70 69 68 67 66 65 64 63 62 62 61 61 61 61 60 60 60 60 60 60 60 60 59 59 59 58 57 56 56 55 54 52 52 52 53 55 58 58 60 61 61 65 67 65 64 63 64 68 70 72 73 74 74 74 74 75 77 78
18 18 19 20 21 23 24 25 27 28 29 30 31 32 32 32 33 34 35 38 40 40 42 44 47 50 52 55 58 61 63 64 65 65 65 64 63 62 62 61 60 60 60 59 59 59 59 59 59 59 58 58 57 57 58 57 56 54 54 54 54 53 53 53 54 57 59 60 62 63 63 66 69 68 66 65 67 70 72 74 76 76 75 75 76 77 78 79
16 17 18 20 21 23 24 25 26 27 28 29 29 29 29 29 29 30 30 31 33 34 36 39 42 44 46 48 51 52 54 56 58 60 61 61 61 60 60 59 58 57 58 57 57 56 56 56 56 56 56 56 57 57 56 55 53 52 52 53 55 55 55 54 55 58 61 62 64 64 64 68 72 71 68 67 70 72 74 76 77 77 76 77 78 79 80 80
14 16 18 20 21 23 24 25 25 26 27 27 27 26 26 27 26 26 26 26 26 27 29 32 37 39 41 43 44 45 46 47 49 51 53 55 56 56 56 55 55 55 54 54 54 54 54 54 54 54 56 57 58 56 54 52 51 51 52 54 56 57 58 58 58 60 62 63 65 66 65 69 73 73 70 70 73 75 77 78 78 78 78 79 79 80 81 81
14 15 17 19 20 22 23 24 24 25 25 25 25 25 25 26 26 25 24 24 23 23 23 26 30 33 36 38 39 39 40 40 42 44 46 48 49 50 51 51 51 50 50 51 51 51 51 52 54 55 57 58 56 54 53 51 51 52 54 56 57 58 59 61 62 64 65 64 66 67 67 69 73 74 73 73 76 78 80 80 80 79 80 80 81 82 83 82
12 14 15 17 19 20 22 23 24 24 25 25 25 25 25 25 26 25 24 24 22 21 22 23 25 28 31 33 34 35 36 36 37 38 40 42 43 45 45 45 45 46 47 48 49 50 51 53 55 56 57 56 54 54 53 52 53 54 56 57 59 60 60 62 64 66 66 66 68 69 68 70 74 75 76 76 78 80 82 81 81 82 82 82 83 84 84 83
12 13 14 16 18 19 21 23 24 25 26 26 26 26 25 25 26 26 25 25 23 22 22 23 24 26 28 31 33 35 36 36 35 35 35 37 38 40 40 40 43 46 47 48 49 50 51 53 54 55 55 55 54 54 53 53 55 57 57 58 60 61 61 63 66 66 67 67 68 69 69 71 75 76 78 79 80 82 83 82 82 83 84 85 86 86 85 84
13 14 15 16 18 19 21 23 24 26 27 28 28 28 28 27 26 27 27 26 25 24 23 24 26 26 28 31 33 35 36 36 35 35 34 34 35 36 37 40 44 47 49 49 49 49 51 54 55 55 54 54 54 55 55 56 57 58 58 58 60 63 64 65 66 66 68 69 69 70 70 73 76 77 79 81 82 83 84 83 84 85 86 87 87 86 85 83
15 16 17 18 20 21 22 24 25 27 28 29 30 30 30 30 29 28 29 27 27 27 25 25 26 28 29 31 33 34 35 35 36 35 35 34 35 37 40 44 47 49 51 52 52 53 56 58 57 54 54 54 55 57 58 58 60 60 60 61 63 65 66 66 66 68 70 71 70 71 74 76 78 79 81 83 84 85 85 84 85 87 88 88 87 85 83 81
17 19 20 21 23 24 25 26 27 28 30 31 32 32 33 33 32 31 31 29 28 29 29 27 27 28 30 32 33 34 34 35 35 36 36 35 38 41 45 48 50 52 53 54 55 57 60 62 58 55 56 56 57 59 61 62 63 64 64 64 65 66 68 68 69 70 71 72 72 75 78 79 80 81 83 84 86 86 86 85 87 88 88 87 85 83 81 79
21 23 24 25 26 27 28 29 30 31 32 32 33 34 35 35 35 34 34 33 30 30 31 30 29 29 31 32 34 35 35 36 37 37 38 38 40 43 47 50 52 54 55 56 56 57 60 62 59 58 58 58 59 62 64 64 64 65 65 65 66 68 70 71 71 72 71 72 74 79 82 82 82 83 84 86 87 86 86 87 88 88 86 85 83 81 80 78
25 26 27 28 28 29 30 31 32 33 34 34 35 36 37 37 36 36 37 37 33 31 33 33 33 32 32 33 34 36 38 39 40 41 41 42 43 46 49 52 53 54 55 56 56 58 59 60 59 59 59 60 62 64 65 66 65 66 67 67 68 70 71 71 72 72 73 74 78 83 85 84 85 87 86 86 86 85 86 87 86 85 84 83 82 80 78 77
28 30 31 31 31 32 33 35 35 36 36 37 37 36 37 37 37 37 38 39 36 33 33 34 35 34 34 34 35 36 38 41 42 44 45 46 47 50 51 54 55 55 55 55 56 59 59 59 59 59 61 63 65 67 68 68 68 67 68 68 69 71 71 72 73 74 77 78 81 85 87 86 88 89 87 85 85 85 86 85 84 83 82 81 79 78 77 77
32 33 34 34 35 36 38 38 38 38 38 38 37 36 36 36 36 37 39 39 37 35 34 35 36 36 36 37 37 38 39 40 42 45 47 48 50 51 52 53 53 53 54 55 56 58 59 59 60 62 64 65 66 67 67 67 67 67 68 69 71 72 73 74 76 78 80 81 83 86 88 89 88 87 86 85 84 85 84 82 81 80 80 79 77 76 75 73
34 36 37 37 38 39 40 40 39 40 40 39 37 36 35 34 35 37 38 38 38 37 36 35 36 37 38 39 39 40 41 41 43 45 46 48 50 50 50 51 51 52 53 55 56 58 59 60 62 63 63 64 65 65 64 64 65 67 69 71 72 73 75 77 79 81 83 84 85 87 89 88 87 86 85 84 83 82 80 79 79 79 78 76 73 71 69 67
35 37 39 39 39 40 40 40 39 40 40 38 35 33 32 32 34 36 36 37 38 38 38 37 37 37 38 39 40 41 42 42 44 45 46 47 49 49 50 50 51 52 54 55 56 58 60 61 61 61 61 63 63 63 63 65 67 69 70 71 73 75 78 80 82 84 85 86 86 87 87 86 85 85 84 82 80 79 77 77 77 76 73 70 68 67 66 65
36 38 40 40 40 40 40 40 40 39 38 35 32 30 28 29 31 33 35 37 38 38 38 38 38 38 39 40 41 41 42 42 43 44 45 46 47 48 50 50 52 54 55 57 57 58 60 60 60 61 62 62 62 64 65 67 69 70 71 73 76 79 81 83 84 86 86 87 87 86 85 84 83 83 81 79 78 77 76 75 72 70 67 66 66 66 67 68
38 39 41 42 42 41 40 40 41 39 34 31 29 27 25 25 27 30 33 36 37 38 39 39 39 39 39 40 40 41 41 42 42 43 45 46 48 50 51 52 53 55 56 57 58 58 58 58 58 59 60 61 63 66 67 68 70 72 75 78 80 83 84 83 85 86 87 86 84 83 83 81 80 79 79 78 76 74 71 69 66 66 66 68 69 70 72 74
38 40 41 42 43 42 40 40 40 38 32 29 26 25 24 23 24 26 29 32 35 38 39 39 39 40 40 40 41 41 42 43 44 45 47 48 49 51 52 53 54 54 55 55 54 53 54 55 57 58 61 63 65 67 69 70 73 75 78 81 84 85 85 84 84 84 83 81 80 80 80 78 77 77 76 74 72 69 67 66 67 69 71 73 75 76 77 79
39 41 42 43 43 43 41 40 39 36 31 28 25 23 22 22 22 23 25 28 32 35 38 39 40 40 41 42 42 43 44 45 46 47 48 49 50 50 51 52 52 51 51 50 49 49 50 54 58 61 63 65 67 69 71 74 77 78 81 83 84 86 86 84 82 80 78 77 77 78 77 76 74 72 69 67 66 66 67 68 71 74 76 78 79 80 81 82
40 42 43 43 44 43 41 39 38 35 30 27 24 23 21 21 21 21 23 25 27 31 34 36 38 39 41 42 43 44 45 46 46 47 47 48 48 48 48 48 48 47 47 47 48 49 51 55 60 63 65 67 69 72 75 77 78 79 81 83 83 84 83 81 79 78 77 75 73 75 74 71 68 64 63 63 64 66 68 71 74 77 79 81 82 83 84 85
41 42 43 44 44 44 42 40 38 34 29 27 24 22 21 20 20 20 21 23 25 27 30 32 34 36 38 40 41 42 43 44 44 44 45 45 45 44 44 44 44 45 46 48 50 52 54 58 62 65 68 71 72 74 76 77 79 80 81 82 81 80 79 78 77 76 75 72 69 69 67 63 62 62 62 64 66 68 71 74 77 79 81 83 84 86 87 89
42 43 44 44 44 44 43 41 38 33 29 26 24 22 21 20 20 20 20 22 23 25 27 29 31 32 35 36 37 38 39 40 40 40 40 41 41 41 41 42 44 46 49 51 54 56 57 60 66 70 71 73 74 75 77 79 80 81 80 80 79 78 78 77 75 73 71 66 61 60 61 62 63 65 66 68 70 71 74 77 79 81 83 85 87 89 91 92
43 44 45 45 44 44 43 42 38 32 29 26 24 22 21 21 20 20 21 21 22 23 25 26 28 29 31 33 33 34 34 35 36 36 36 37 39 40 42 44 47 50 53 56 58 61 62 62 66 71 73 75 77 77 78 79 79 78 78 78 78 77 76 75 72 67 62 58 56 57 61 65 67 70 70 71 72 75 77 80 82 85 87 89 91 92 93 94
44 46 46 45 44 44 44 42 38 32 28 26 24 23 22 21 21 21 21 21 22 23 24 25 26 27 28 29 31 32 32 31 32 34 35 37 40 43 46 48 51 54 57 60 62 64 66 65 67 72 75 76 76 76 75 75 75 75 75 75 75 74 72 68 65 62 60 59 60 61 63 67 71 73 74 74 76 79 82 84 86 89 90 91 92 94 95 96
45 46 46 45 44 44 44 42 38 33 29 26 24 23 22 22 21 21 21 21 22 23 23 24 25 26 27 28 29 31 32 32 34 36 38 41 44 47 51 53 56 58 60 63 65 67 69 68 68 71 72 72 72 72 71 71 71 71 71 71 69 66 63 61 60 62 64 65 67 67 66 69 73 75 76 79 81 84 86 87 89 90 91 92 94 96 98 100
46 47 46 46 45 44 44 42 38 33 30 27 25 24 24 23 23 23 22 22 22 23 23 24 25 26 28 29 30 32 34 36 38 40 43 45 48 51 53 56 58 61 63 65 67 68 68 67 66 66 68 69 69 69 68 68 67 66 64 62 60 59 59 60 61 64 67 68 71 72 70 72 76 78 80 82 84 85 86 88 89 90 92 94 97 99 101 104
46 46 46 46 45 45 43 40 36 33 30 29 27 26 25 24 24 24 24 23 23 24 25 26 27 28 30 32 34 36 38 40 42 44 46 48 51 53 56 58 61 63 65 66 66 66 65 63 63 64 65 66 67 66 65 63 60 58 56 56 57 59 62 63 64 65 68 71 74 76 76 77 80 80 81 83 84 85 87 88 91 94 96 99 101 103 105 108
46 46 46 45 45 44 42 38 34 32 30 29 27 26 26 25 25 26 26 26 26 27 28 29 30 32 33 35 37 39 42 44 46 48 50 52 54 57 59 61 62 63 63 63 63 63 63 62 61 61 63 64 63 60 56 54 53 53 55 58 60 63 64 66 67 69 70 73 77 80 81 82 82 82 82 84 85 88 90 93 95 98 100 103 105 107 110 112
46 46 46 45 45 43 39 36 33 31 29 28 27 26 26 26 26 26 27 28 29 30 31 32 33 35 36 38 40 42 44 46 48 50 52 54 56 58 59 60 60 60 60 60 60 61 62 61 60 57 56 55 54 51 49 50 53 56 58 60 62 65 67 69 71 73 74 76 79 81 81 82 84 84 85 88 90 93 95 97 100 102 105 107 109 112 115 117
46 46 46 45 43 40 36 33 32 30 29 28 27 26 26 26 27 27 28 29 31 32 33 34 35 37 38 40 41 43 45 47 49 51 53 55 56 57 57 58 58 58 58 59 59 59 59 59 55 51 48 46 46 48 50 51 55 59 61 63 64 67 70 72 74 76 76 76 78 80 82 83 87 89 91 93 96 98 100 103 105 108 111 113 115 117 120 122
46 46 46 44 40 36 34 32 30 29 29 28 27 26 26 27 28 29 29 30 32 33 34 36 37 38 40 42 43 45 46 48 49 51 52 53 54 54 55 56 56 57 57 57 56 54 52 50 48 46 47 48 48 51 53 54 56 60 64 66 68 70 72 74 75 76 76 76 78 83 86 87 90 93 95 97 100 103 105 108 110 113 115 117 118 121 122 124
46 45 43 40 36 33 31 30 28 27 27 27 26 26 26 27 28 29 31 32 33 34 36 37 39 40 41 43 44 46 47 48 49 49 50 51 52 53 54 54 55 55 54 51 49 46 44 44 45 47 51 53 52 54 57 59 62 65 67 68 70 72 73 74 76 77 79 80 82 85 89 91 94 97 99 101 104 106 109 111 114 116 117 118 120 122 123 124
45 42 38 35 32 30 28 27 26 25 25 25 26 26 27 27 28 29 31 32 33 35 36 37 38 40 41 42 44 45 46 47 49 50 51 51 51 52 52 52 51 49 46 43 41 41 42 45 48 50 55 57 57 59 62 64 66 68 68 69 70 72 73 76 79 81 83 85 87 89 93 96 98 100 103 106 108 110 113 115 116 118 119 120 121 122 122 122
41 38 34 32 30 28 27 26 25 24 24 25 25 26 27 28 29 30 31 32 33 35 36 37 38 39 41 42 43 45 46 48 49 50 50 50 50 49 48 46 43 41 40 40 41 43 45 48 50 52 57 62 62 63 65 65 66 68 69 70 72 74 77 79 81 84 86 89 92 94 97 100 103 105 107 110 112 114 116 117 119 120 120 120 121 121 121 120
36 33 31 29 28 27 26 25 25 25 25 26 26 27 28 29 30 31 32 33 34 36 37 38 39 41 42 43 44 45 46 47 47 48 47 47 45 42 39 38 38 39 41 43 44 46 48 51 53 55 59 63 63 63 64 65 66 69 71 73 75 77 79 82 84 87 89 92 95 98 100 103 106 108 111 113 115 116 117 118 120 120 119 119 119 118 118 118
31 29 28 26 25 25 24 24 25 25 26 27 28 29 30 30 31 32 34 35 36 38 39 40 41 42 43 43 44 44 45 45 44 42 40 38 36 35 35 37 39 41 43 45 47 50 52 55 57 57 58 60 61 61 64 66 68 71 73 75 78 80 82 85 88 90 93 95 98 102 104 105 107 110 112 114 116 117 117 118 118 118 117 117 116 115 115 115
28 26 25 24 23 23 24 25 26 26 27 29 29 30 32 32 34 35 36 37 38 39 40 40 41 42 42 42 42 41 40 38 36 34 33 32 33 36 38 40 42 44 46 49 51 54 55 56 57 56 56 59 62 64 66 68 70 73 76 79 82 84 86 89 92 95 98 101 103 105 107 108 110 111 112 113 115 115 116 116 116 115 114 113 113 113 112 112
Wind_Direction
213 215 216 216 216 217 217 217 216 217 217 216 216 216 217 219 221 223 223 225 227 230 232 235 236 237 237 236 234 233 233 235 237 239 242 245 248 250 252 253 255 256 257 258 259 260 261 262 263 264 265 267 268 270 271 273 275 276 277 278 279 280 281 282 283 284 285 285 285 286 286 287 287 288 288 289 289 289 289 288 288 289 289 289 289 289 290 290
214 216 217 218 219 220 220 220 219 219 220 220 220 219 219 221 223 224 225 227 229 231 233 236 238 240 241 242 242 240 240 240 240 241 243 244 246 249 251 253 255 257 258 258 259 260 261 262 264 265 267 269 270 272 273 275 276 277 278 279 280 281 282 283 284 285 286 286 287 287 287 288 288 289 290 290 290 290 289 289 290 290 290 290 290 291 291 291
215 217 218 219 221 222 223 223 223 223 223 223 223 223 223 223 225 226 227 228 230 231 233 236 238 240 242 244 245 246 245 245 245 246 247 248 249 250 252 254 256 257 258 259 261 262 262 263 265 267 269 271 272 273 275 276 277 278 279 280 282 282 284 284 285 286 287 287 288 288 289 289 290 290 291 291 291 291 290 290 291 291 292 292 292 292 292 292
215 217 219 221 222 224 225 226 226 226 226 226 226 226 227 227 228 229 229 229 230 231 232 235 237 239 241 243 245 247 248 248 248 249 250 251 252 253 254 255 257 259 260 262 264 265 266 266 268 269 271 272 274 276 277 278 279 281 282 283 284 285 285 286 286 287 287 288 289 289 290 290 290 291 291 291 291 292 292 292 292 293 293 294 294 294 295 294
216 218 220 222 223 225 226 228 228 229 229 229 230 230 230 230 231 231 232 232 232 232 233 234 236 238 239 241 243 245 247 249 250 250 251 252 253 254 255 256 258 259 261 263 264 266 267 268 269 271 272 274 276 277 279 280 281 283 283 284 285 285 286 287 287 288 288 289 290 290 290 290 290 291 291 291 292 292 293 293 293 294 294 295 295 296 296 296
218 219 220 222 224 226 228 229 230 231 232 232 233 233 233 233 234 234 234 234 235 235 235 236 237 239 240 241 242 244 246 247 249 250 251 252 253 254 256 257 258 259 261 263 264 266 267 269 271 273 274 276 277 279 280 281 282 283 284 285 286 286 287 288 288 289 290 290 290 290 290 290 290 290 291 291 293 294 294 294 294 294 294 295 295 296 296 296
220 221 222 224 225 227 229 231 232 233 234 234 235 236 236 236 237 237 237 237 237 238 238 239 240 241 242 243 244 245 246 247 249 250 251 252 253 254 256 258 260 261 263 265 266 268 270 272 273 275 276 278 279 280 281 282 283 284 285 286 287 288 288 289 290 290 291 290 290 289 289 289 290 291 292 293 294 295 295 295 296 296 296 296 296 296 296 296
223 224 225 227 228 229 231 233 234 235 236 237 238 238 239 239 240 240 240 240 240 240 241 242 243 244 244 245 246 247 249 250 251 252 252 254 255 256 258 260 262 264 266 267 269 271 273 274 276 277 278 279 280 282 282 283 284 285 286 287 288 289 290 290 291 291 291 290 289 289 290 290 292 293 294 295 296 297 297 298 298 298 298 298 298 297 297 298
225 228 230 231 232 233 234 235 237 238 239 239 240 241 241 242 242 243 243 243 243 243 243 244 245 246 247 248 248 249 251 252 253 254 255 256 258 260 261 263 264 266 268 269 271 273 274 276 277 278 279 280 281 282 283 284 285 286 288 288 289 290 291 291 291 291 290 290 290 291 291 293 294 295 295 296 298 299 299 299 299 299 299 299 299 298 299 299
228 231 233 235 236 237 238 239 240 241 241 242 243 243 244 244 245 245 245 245 245 245 245 246 247 248 249 250 251 251 252 253 255 256 257 259 260 262 263 265 266 268 269 271 273 274 275 276 278 279 280 281 282 283 285 286 287 288 289 290 290 291 291 291 291 291 291 291 292 293 294 295 296 297 297 299 301 301 301 301 301 301 301 300 300 300 300 300
229 232 235 238 240 241 242 243 244 245 245 246 246 247 247 247 247 247 247 247 247 247 246 246 247 249 250 251 252 253 253 254 256 257 259 260 262 263 264 266 267 269 270 272 273 274 275 277 278 279 280 282 283 284 286 287 288 289 290 291 291 291 291 292 292 292 292 293 295 296 297 297 298 298 299 301 302 302 302 303 304 303 303 302 302 301 301 301
230 233 237 240 243 245 246 248 249 250 250 251 251 250 250 250 250 250 250 249 249 248 248 248 248 249 250 251 252 253 254 255 256 258 259 261 262 264 265 266 268 269 270 272 273 274 275 277 278 280 281 282 284 285 286 287 288 289 290 291 291 291 291 291 291 292 293 294 296 298 299 299 299 298 299 301 302 303 303 305 305 305 304 304 303 302 302 302
231 235 239 243 246 249 251 253 254 256 257 257 257 256 256 255 254 253 253 252 251 250 249 249 248 248 249 251 252 253 254 255 256 257 259 260 262 263 265 266 267 269 270 271 272 274 276 277 279 280 281 283 284 285 286 287 288 289 290 290 291 291 291 291 291 292 293 295 297 298 299 300 299 299 299 301 302 302 304 305 305 305 305 304 303 302 302 302
233 238 242 246 250 252 255 256 258 260 262 263 264 264 264 262 260 258 257 256 253 252 250 249 248 248 249 250 251 252 253 254 255 257 258 259 261 262 264 265 267 268 270 271 273 274 276 278 279 280 282 283 285 286 286 287 288 289 290 290 290 290 290 290 292 293 295 297 299 299 300 300 300 300 300 301 301 301 303 305 304 304 304 303 302 301 301 301
234 239 244 249 252 254 257 259 261 263 264 265 267 268 267 266 265 263 262 260 258 254 251 249 248 248 248 248 250 251 252 253 254 255 257 258 260 261 263 265 266 268 269 271 273 275 276 278 279 281 282 284 285 286 287 288 289 290 291 291 290 288 288 289 291 293 295 298 299 300 301 300 300 301 301 301 301 301 303 304 304 304 303 301 301 300 300 300
236 242 247 251 254 257 259 261 262 263 265 266 267 268 268 266 266 266 264 262 261 258 252 249 247 247 246 247 248 250 251 251 252 253 255 256 258 260 262 264 266 268 269 271 273 275 276 278 280 282 283 284 286 287 289 290 290 291 291 291 290 288 288 289 291 294 296 298 299 301 301 301 301 301 302 302 301 301 303 304 303 302 301 300 300 299 300 300
240 246 251 254 256 258 260 262 263 265 266 267 268 270 271 269 269 271 268 264 262 260 255 250 247 245 245 245 247 248 249 250 251 252 253 255 256 258 261 263 265 267 269 271 273 275 277 279 281 282 284 285 287 289 290 290 290 290 291 292 290 288 288 290 292 295 296 297 298 301 301 301 301 301 302 303 301 301 302 302 301 301 300 299 299 299 300 300
245 250 254 258 260 262 264 265 265 266 267 269 271 273 275 275 274 275 276 270 264 261 256 251 247 245 244 244 245 246 247 249 250 251 253 254 255 257 259 262 264 266 269 271 273 275 277 279 280 282 284 287 289 289 288 288 288 290 293 293 291 289 289 291 293 295 295 296 298 300 301 301 300 300 302 302 301 301 302 301 300 299 299 299 299 300 301 301
250 257 262 266 268 270 270 271 271 271 271 271 273 274 277 279 278 278 279 277 270 263 257 252 248 244 242 242 242 243 245 247 249 250 252 253 255 256 258 261 263 266 268 271 274 275 277 279 280 283 286 288 288 287 286 286 287 291 294 295 293 290 291 293 295 296 296 297 298 299 300 300 299 300 302 302 301 302 302 301 300 299 299 299 300 301 301 301
261 269 274 277 279 279 279 280 280 280 278 276 275 275 276 277 278 278 278 278 274 266 257 251 247 244 240 239 238 239 241 243 245 248 251 253 254 255 257 260 263 266 269 271 273 275 277 279 282 285 287 286 285 284 285 286 288 292 294 295 293 291 292 294 296 296 296 297 299 300 301 300 299 300 301 301 301 302 302 300 299 299 300 300 301 301 301 301
270 276 280 282 282 282 283 284 284 284 284 283 280 278 276 275 275 276 275 276 275 269 260 252 247 244 241 239 238 239 239 240 242 245 248 251 253 254 256 259 264 266 268 269 272 275 278 279 281 284 285 285 285 286 286 288 291 293 294 294 292 292 293 294 294 295 296 297 299 300 301 299 298 300 300 301 302 302 301 300 299 300 301 301 301 301 301 299
275 280 283 284 285 285 286 286 285 284 284 283 282 281 279 276 273 272 271 272 272 270 264 256 249 245 244 242 242 243 242 242 243 244 247 250 254 255 257 260 262 264 266 267 269 273 276 277 279 282 284 284 286 288 289 291 293 293 292 292 292 292 294 294 294 295 296 297 298 299 299 298 298 300 300 300 301 301 300 299 300 300 300 300 301 300 299 298
287 290 292 292 292 292 290 288 285 283 283 282 281 280 280 277 274 271 268 266 267 267 265 260 254 249 246 244 245 246 246 246 247 249 250 252 255 257 258 259 260 261 264 266 268 271 274 276 279 282 283 284 287 289 290 292 292 292 292 292 292 293 294 294 295 296 297 297 297 297 297 297 298 299 299 300 301 300 299 299 299 299 300 300 300 299 298 297
302 302 301 299 298 296 294 290 287 284 282 281 280 279 278 277 275 272 269 264 262 263 263 260 257 253 250 247 247 246 246 247 249 251 251 252 253 254 256 257 259 262 265 267 271 274 275 277 280 281 281 283 287 288 289 290 291 292 292 292 292 293 293 294 296 296 297 297 297 297 297 298 299 299 299 300 300 299 299 299 299 299 300 300 299 298 298 298
310 309 307 304 301 299 297 295 292 288 284 281 279 278 276 275 274 273 271 266 259 258 261 260 258 256 253 251 250 248 246 245 247 249 250 250 251 251 253 256 259 264 267 271 274 277 277 278 279 280 281 284 285 285 286 287 290 291 291 290 291 292 294 295 295 295 295 295 297 297 297 298 299 299 300 300 300 300 300 299 299 300 300 299 299 299 300 300
310 311 309 307 304 301 300 298 296 291 288 284 280 277 275 274 273 272 270 268 262 257 258 259 258 257 255 254 253 251 249 247 247 248 248 249 251 252 254 258 262 266 270 273 276 276 276 277 279 280 282 285 286 286 287 288 289 290 289 289 290 292 294 294 294 294 294 296 297 297 298 299 299 299 300 300 300 300 300 300 300 300 300 299 300 300 300 299
309 310 310 309 307 306 306 304 301 297 293 288 283 279 275 272 271 269 267 267 266 260 257 257 258 258 256 255 255 254 253 252 251 250 249 248 250 252 255 259 262 266 269 272 273 274 277 279 281 282 284 285 287 287 288 290 290 290 289 290 291 293 293 293 293 294 295 297 298 298 299 300 300 300 300 300 301 301 301 301 301 300 299 299 300 300 299 298
309 310 311 311 312 312 310 307 305 301 296 290 286 282 276 272 268 266 264 265 267 264 260 257 257 258 257 256 256 255 255 256 256 255 253 252 252 254 257 260 264 267 270 272 274 277 280 282 282 283 285 286 286 287 289 290 290 290 291 291 292 292 293 293 294 295 296 297 298 299 299 300 300 300 300 301 302 301 301 301 300 299 298 299 299 299 298 298
307 309 311 312 313 312 310 308 307 304 299 294 290 284 278 272 267 265 264 265 265 265 263 260 258 258 258 258 257 257 257 258 259 260 260 261 262 265 267 269 270 271 273 275 277 279 280 281 283 284 286 287 288 289 290 290 291 291 291 292 291 292 292 293 294 296 297 298 298 298 299 300 300 301 301 302 301 300 300 299 298 298 298 298 298 297 297 297
306 308 310 312 312 311 310 310 309 307 302 298 294 288 280 273 267 264 263 263 263 263 263 263 260 259 259 259 259 259 259 260 261 263 265 267 269 272 274 275 275 275 275 276 277 279 281 283 285 286 287 288 288 288 289 290 292 292 291 291 291 292 293 294 296 297 297 298 298 299 300 300 301 301 301 301 300 299 299 298 298 298 298 298 298 297 297 298
305 307 309 311 311 311 312 313 312 310 307 302 297 291 284 274 267 263 260 260 260 261 262 262 262 261 260 261 261 262 263 264 265 266 268 270 272 274 275 276 276 277 277 278 279 281 283 284 285 286 287 287 287 289 290 291 291 291 290 291 292 293 294 295 297 297 298 299 299 300 300 301 301 301 300 300 299 299 299 298 299 299 299 298 297 297 298 298
305 308 310 311 312 313 315 317 316 314 311 306 300 295 287 278 270 264 261 260 260 260 261 262 263 263 263 263 264 265 266 267 268 269 271 272 273 274 275 276 277 278 279 280 282 283 284 285 286 287 288 288 289 290 291 290 290 291 292 293 294 294 295 296 297 298 298 299 300 301 301 300 301 300 300 300 300 300 300 300 301 300 299 299 299 299 300 300
306 309 311 312 313 314 317 320 319 317 314 308 302 297 291 283 274 267 263 261 260 261 261 262 263 264 265 266 266 267 268 268 269 270 271 273 274 276 277 277 278 279 280 281 283 284 286 287 288 288 289 289 289 290 290 290 291 292 293 294 295 295 295 296 296 297 298 299 301 301 300 300 301 301 301 301 301 302 302 303 303 302 301 301 301 302 301 301
308 310 311 313 314 316 318 321 322 319 315 310 305 299 293 286 279 272 267 263 261 261 261 262 262 263 265 266 267 268 268 269 271 272 273 275 276 277 278 278 279 280 281 282 283 284 286 287 288 288 287 288 288 289 290 290 291 292 293 294 294 295 296 297 297 298 299 301 301 301 301 301 301 301 302 302 303 304 304 305 303 302 301 301 301 301 300 300
309 310 312 313 315 317 319 322 323 320 315 310 306 302 296 290 283 276 270 266 263 262 262 262 262 263 264 265 267 268 269 270 272 273 274 275 276 276 277 278 279 280 281 283 285 286 286 286 286 285 285 286 287 288 288 290 291 292 293 294 295 296 297 299 300 301 301 302 302 301 301 302 302 302 303 303 303 304 304 303 301 300 300 300 300 300 300 300
310 311 313 314 316 317 319 322 324 320 315 309 306 304 300 295 288 282 277 272 268 266 264 264 264 264 264 265 267 268 270 271 273 274 275 275 276 276 277 278 280 282 284 285 285 285 285 285 285 285 285 286 287 289 290 292 293 294 295 296 297 298 299 300 301 301 302 303 303 302 302 303 302 303 303 302 302 302 301 300 299 299 299 299 299 300 300 299
311 312 313 314 316 317 319 322 323 320 314 309 305 303 301 298 293 288 283 279 275 273 270 269 268 269 269 270 270 270 272 273 274 275 276 277 277 278 280 282 284 285 285 284 284 283 283 285 286 287 288 289 290 292 294 295 296 297 298 299 299 300 300 301 302 302 303 304 305 304 304 303 303 302 302 302 302 301 300 299 299 299 299 299 299 299 298 298
311 312 313 314 316 318 319 321 322 319 313 307 303 302 300 298 295 292 288 285 282 280 278 276 275 274 274 275 276 275 275 276 276 277 278 279 281 283 284 285 284 284 283 283 284 284 284 286 287 289 291 292 293 295 296 297 298 299 300 300 300 301 302 302 303 304 304 305 305 304 303 303 303 302 302 303 302 301 300 299 299 299 298 299 299 299 299 299
311 311 312 314 315 317 319 320 319 317 312 307 303 301 299 296 295 292 290 288 286 284 283 281 280 278 277 278 278 278 277 277 278 281 282 283 284 285 284 284 283 283 283 284 285 286 287 289 290 291 292 294 295 296 297 298 299 300 300 300 301 302 303 304 305 306 306 306 305 304 304 304 303 302 303 303 302 301 300 300 300 300 300 300 300 300 301 301
310 311 312 313 315 317 318 318 317 314 311 308 303 300 297 295 293 291 291 290 288 287 285 284 283 282 281 280 280 281 282 282 282 283 283 283 282 282 282 283 283 284 285 286 288 289 291 292 293 294 295 296 297 298 298 299 300 300 301 301 302 303 304 305 307 307 308 308 306 305 305 304 302 302 303 303 302 301 301 301 301 301 301 301 301 301 301 301
309 310 311 313 315 316 317 316 315 313 312 309 305 301 299 297 294 293 291 290 289 288 288 287 287 287 286 285 285 285 285 284 282 281 281 281 282 283 284 285 286 287 288 290 291 292 294 296 297 297 298 298 298 299 300 301 301 301 301 302 303 304 305 306 307 307 307 307 305 304 304 303 301 302 302 302 301 301 301 301 301 301 301 300 301 301 301 301
308 309 310 312 314 315 315 314 313 311 310 309 306 304 302 300 298 296 295 294 293 293 292 291 290 288 286 285 284 283 283 282 282 282 283 284 285 286 287 288 289 290 291 292 294 296 298 299 300 300 300 299 300 301 302 303 303 303 304 304 305 305 306 306 307 306 306 305 304 303 303 302 302 302 302 301 301 301 301 301 301 301 301 301 301 301 301 300
307 308 310 311 313 314 313 312 310 309 308 308 306 304 302 301 300 299 297 296 294 293 291 290 288 286 285 284 283 283 283 283 284 285 286 287 287 288 288 289 291 292 294 296 298 299 300 300 301 301 301 301 301 303 304 306 306 306 306 306 307 307 306 306 306 305 305 304 304 304 304 303 303 303 302 302 301 301 301 301 301 301 301 301 301 301 301 301
306 308 309 311 312 312 311 309 308 307 307 307 305 303 301 299 298 296 294 293 291 290 290 289 288 287 287 287 286 286 286 286 286 286 287 287 288 289 291 293 295 297 298 299 300 301 301 301 302 302 301 301 303 306 308 309 308 307 307 307 307 306 306 305 305 304 304 304 304 304 304 304 303 303 303 302 302 302 302 302 302 302 302 302 303 303 302 303
306 308 310 311 311 310 309 308 307 307 306 306 305 303 300 298 296 294 293 292 292 292 291 290 290 289 288 288 288 287 287 287 288 288 289 291 293 294 296 297 299 299 300 301 302 302 303 303 304 305 304 303 304 306 307 308 307 306 306 306 305 305 304 304 304 304 304 305 305 304 304 304 304 303 304 304 304 304 304 304 304 304 304 304 305 304 304 304
307 308 310 310 310 309 308 307 307 307 306 306 305 303 300 298 297 296 295 294 293 292 292 291 291 291 291 291 291 291 291 291 292 293 294 296 297 298 299 299 300 301 301 302 303 304 305 306 307 308 307 307 307 308 307 307 306 305 304 304 304 304 304 305 305 305 305 305 306 305 305 305 304 304 305 305 305 305 305 305 305 305 305 305 304 304 303 303
308 309 309 309 309 308 307 307 307 306 305 305 304 304 303 301 300 298 297 296 295 294 294 293 293 294 294 294 295 296 296 297 298 298 299 299 300 300 301 301 302 302 303 304 305 307 308 309 310 311 310 309 309 309 308 307 307 305 305 306 306 306 306 306 306 306 306 306 306 306 305 305 305 305 305 305 305 305 305 305 305 304 304 304 303 303 303 303
309 309 309 309 308 307 307 307 307 306 306 306 306 306 306 305 304 302 300 299 298 298 298 297 298 298 299 299 300 300 301 301 301 301 302 302 302 303 303 303 304 305 306 308 310 311 312 312 312 312 310 309 310 310 309 309 308 308 307 308 308 308 308 308 308 308 307 307 307 306 305 305 305 306 306 306 306 305 305 305 304 304 304 303 303 303 303 303
309 309 309 308 308 308 308 309 310 310 311 311 311 310 309 308 306 304 303 303 302 302 302 303 303 303 303 303 303 302 302 302 303 303 303 304 304 305 305 306 308 309 311 313 313 313 313 312 311 311 310 310 310 311 310 311 310 310 309 309 309 309 309 308 308 308 307 307 306 306 306 306 306 306 306 306 306 306 305 305 304 304 304 304 304 304 304 304
308 309 309 309 309 310 312 313 315 316 316 315 315 313 312 311 310 309 308 308 307 307 307 306 305 305 305 305 304 304 304 304 304 304 305 306 307 309 310 311 313 314 314 314 313 312 311 310 310 310 310 310 311 312 312 311 311 310 310 310 309 309 308 307 307 306 306 306 306 306 306 306 307 306 306 306 306 305 305 304 304 304 304 304 304 305 305 304
308 309 309 310 311 313 315 317 318 318 318 317 316 315 314 313 312 312 311 310 309 308 307 307 307 306 306 306 306 306 306 306 306 307 308 310 312 314 315 315 314 314 313 312 312 311 310 310 310 310 311 310 311 311 311 311 311 310 309 309 308 307 307 306 307 306 306 306 306 306 306 306 306 306 305 305 305 305 304 304 304 305 305 305 305 304 304 303
309 310 311 313 314 316 318 319 319 319 318 317 316 315 315 314 313 312 311 310 309 309 308 308 308 308 308 308 308 308 309 310 311 313 314 316 317 316 315 314 313 312 312 311 311 310 310 311 311 311 312 311 311 311 311 311 310 309 308 307 307 307 307 308 308 308 307 307 307 307 307 306 306 305 305 305 305 305 305 305 305 305 305 304 304 304 303 303